Location: The Dilly Hill Observatory
(31.5262°N, 86.8310°W)
Time: 01:02:11
(UTC-05:00)

Tiangong 2 - Visible Passes

Search period start: 23 July 2018 00:00
Search period end: 02 August 2018 00:00
Orbit: 386 x 394 km, 42.8° (Epoch: 22 July)

Date Brightness Start Highest point End Pass type
(mag) Time Alt. Az. Time Alt. Az. Time Alt. Az.
23 Jul 2.6 20:58:04 10° NW 21:00:54 28° NNE 21:02:33 18° ENE visible
23 Jul 4.5 22:34:52 10° WNW 22:34:52 10° WNW 22:34:52 10° WNW visible
24 Jul 1.5 21:36:57 10° WNW 21:39:41 59° W 21:39:41 59° W visible
25 Jul 1.5 20:39:15 10° NW 20:42:24 55° NNE 20:44:32 18° ESE visible
26 Jul 2.4 21:18:35 10° W 21:21:25 29° SW 21:21:46 28° SSW visible
27 Jul 1.3 20:20:36 10° WNW 20:23:45 63° SW 20:26:44 11° SE visible
28 Jul 3.7 21:00:58 10° WSW 21:02:35 13° SW 21:04:08 10° SSW visible
